Location: Gwatt
(46.7204°N, 7.6223°E)
Time: 13:23:48
(UTC+00:00)

S-56A Canister/Altair - Pass Details

Date: 29 January 2021
Orbit: 632 x 2501 km, 38.9° (Epoch: 28 February)

Event Time Altitude Azimuth Distance (km) Brightness Sun altitude
Rises 02:23:37 0° 254° (WSW) 3,118 - -46.2°
Reaches altitude 10° 02:26:17 10° 244° (WSW) 2,084 - -45.8°
Maximum altitude 02:30:21 31° 181° (S) 1,099 - -45.2°
Drops below altitude 10° 02:34:20 10° 118° (ESE) 2,050 - -44.5°
Exits shadow 02:36:26 - 109° (ESE) 2,856 10.9 -44.2°
Sets 02:36:57 0° 108° (ESE) 3,059 11.1 -44.1°
